User: anonymous   Login
Location: Lalanga
(4.5882°N, 32.9072°E)
Time: 00:39:55
(UTC+00:00)
Language:

GPS 2-14 Rocket1 - Orbit

View from above orbital plane
View from above orbital plane
View from above satellite
View from above satellite

Ground track
Ground track

The orbit data is extracted from the following two-line orbital elements,

1 22015U 92039B   20090.77935513  .00001559  00000-0  45793-4 0  9996
2 22015  20.7139 256.1044 0047737  90.0713 270.5197 15.18800246545510
Epoch (UTC): 30 March 2020 18:42:16
Eccentricity: 0.0047737
inclination: 20.7139°
perigee height: 476 km
apogee height: 542 km
right ascension of ascending node: 256.1044°
argument of perigee: 90.0713°
revolutions per day: 15.18800246
mean anomaly at epoch: 270.5197°
orbit number at epoch: 54551

The dashed part of the orbit path shows where the satellite is in the earth's shadow,  

DLR